Location: Favalello
(42.2939°N, 9.2706°E)
Time: 14:49:37
(UTC+00:00)

Cosmos 1812 - Pass Details

Date: 06 December 2019
Orbit: 516 x 523 km, 82.5° (Epoch: 20 January)

Event Time Altitude Azimuth Distance (km) Brightness Sun altitude
Rises 16:52:40 0° 176° (S) 2,636 6.5 -11.2°
Reaches altitude 10° 16:54:49 10° 172° (S) 1,754 5.5 -11.6°
Maximum altitude 16:58:35 55° 94° (E) 635 2.8 -12.2°
Drops below altitude 10° 17:02:23 10° 17° (NNE) 1,770 5.1 -12.9°
Enters shadow 17:03:17 - 15° (NNE) 2,136 5.5 -13.1°
